Regional Weather Roundup
Issued by NWS

Home | Current Version | Previous Version | Text Only | Print | Product List | Glossary On
Versions: 1 2 3 4 5 6 7 8 9 10 11 12 13 14 15 16 17 18 19 20 21 22 23 24 25 26 27 28
000
ASUS44 KLIX 161813
RWRLA
LOUISIANA WEATHER ROUNDUP
NATIONAL WEATHER SERVICE NEW ORLEANS LA
1200 PM CST TUE JAN 16 2018

NOTE: "FAIR" INDICATES FEW OR NO CLOUDS BELOW 12,000 FEET WITH NO
      SIGNIFICANT WEATHER AND/OR OBSTRUCTIONS TO VISIBILITY.
      SKY/WX - SKY CONDITION AND SIGNIFICANT WEATHER.
      TMP - AIR TEMPERATURE.    DP   - DEWPOINT TEMPERATURE.
      RH  - RELATIVE HUMIDITY.  PRES - PRESSURE.
      HX  - HEAT INDEX.         WCI  - WIND CHILL INDEX.

*  THESE STATIONS ARE NOT NWS OR FAA STATIONS AND ARE NOT UNDER
   NWS QUALITY CONTROL.

LAZ040-048-061>063-065-066-069-161900-
SOUTHEAST LOUISIANA

CITY           SKY/WX    TMP DP  RH WIND       PRES   REMARKS
N.O. INTL ARPT CLOUDY    44  37  76 N16G23    30.46F
6HR MIN TEMP:  40; 6HR MAX TEMP:  46;

N.O. LAKEFRONT CLOUDY    46  37  71 N18       30.46F
6HR MIN TEMP:  44; 6HR MAX TEMP:  48;

N.O. DOWNTOWN* CLOUDY    45  36  70 N10G21    30.46F
6HR MIN TEMP:  45; 6HR MAX TEMP:  49;

RESERVE*       CLOUDY    43  32  65 N15G21    30.48F
6HR MIN TEMP:  38; 6HR MAX TEMP:  46;

SLIDELL        CLOUDY    45  34  65 N15G22    30.46F
6HR MIN TEMP:  34; 6HR MAX TEMP:  46;

BATON ROUGE    LGT RAIN  33  27  78 N14G26    30.54F WCI  23
6HR MIN TEMP:  33; 6HR MAX TEMP:  42; 6HR PCP: TRACE;

BOOTHVILLE     FAIR      51  46  83 N16G24    30.40F
6HR MIN TEMP:  48; 6HR MAX TEMP:  58;

BELLE CHASSE   CLOUDY    47  39  74 N13G24    30.43F
6HR MIN TEMP:  37; 6HR MAX TEMP:  51;

BOGALUSA*      CLOUDY    40  32  72 NE14G21   30.50F WCI  33
6HR MIN TEMP:  33; 6HR MAX TEMP:  42;

GALLIANO*      CLOUDY    47  38  70 N21       30.43S
NEW ROADS*     MIX PCPN  30  28  89 N15G25    30.57F WCI  19
6HR MIN TEMP:  30; 6HR MAX TEMP:  41; 6HR PCP:  0.01;

GONZALES*      CLOUDY    39  31  71 N13G20    30.49F WCI  32
6HR MIN TEMP:  38; 6HR MAX TEMP:  42;

HAMMOND*       CLOUDY    37  32  81 N17       30.50F WCI  28
HOUMA*         CLOUDY    48  39  71 N16       30.44F
PORT FOURCHON* PTCLDY    50  43  76 N18G24    30.41F

$$

LAZ041-044-053-054-161900-
SOUTHWEST LOUISIANA

CITY           SKY/WX    TMP DP  RH WIND       PRES   REMARKS
LAKE CHARLES   MIX PCPN  32  30  92 N21G26    30.58F WCI  20
6HR MIN TEMP:  32; 6HR MAX TEMP:  47; 6HR PCP:  0.07;

LAFAYETTE      FRZ RAIN  31  29  92 N21G26    30.55F FOG     WCI  18
6HR MIN TEMP:  31; 6HR MAX TEMP:  46; 6HR PCP:  0.01;

PATTERSON      CLOUDY    41  33  73 N16G23    30.48F
6HR MIN TEMP:  41; 6HR MAX TEMP:  46;

SALT POINT       N/A     42  33  70 N10G21    30.45F
6HR MIN TEMP:  41; 6HR MAX TEMP:  47;

NEW IBERIA     FLURRIES  32  27  81 N23G31    30.53F WCI  19
6HR MIN TEMP:  32; 6HR MAX TEMP:  46; 6HR PCP:  0.01;

CHENAULT AIRPK LGT RAIN  32  28  86 N16G26    30.59F FOG     WCI  21

$$

LAZ027-028-161900-
CENTRAL LOUISIANA

CITY           SKY/WX    TMP DP  RH WIND       PRES   REMARKS
FORT POLK      MIX PCPN  27  25  89 N10       30.61F WCI  18
6HR MIN TEMP:  27; 6HR MAX TEMP:  36; 6HR PCP:  0.05;

ALEXANDRIA INT FLURRIES  27  22  81 N14       30.62F WCI  16
6HR MIN TEMP:  27; 6HR MAX TEMP:  36; 6HR PCP:  0.01;

ALEXANDRIA     LGT SNOW  27  23  85 VRB7      30.62F FOG     WCI  19
6HR MIN TEMP:  27; 6HR MAX TEMP:  35; 6HR PCP:  0.02;


$$

LAZ001-002-161900-
NORTHWEST LOUISIANA

CITY           SKY/WX    TMP DP  RH WIND       PRES   REMARKS
SHREVEPORT     CLOUDY    24  13  62 N14       30.71F WCI  12
6HR MIN TEMP:  22; 6HR MAX TEMP:  24; 6HR PCP:  0.02;

BARKSDALE AFB  CLOUDY    24  11  58 N15       30.71F WCI  11
6HR MIN TEMP:  22; 6HR MAX TEMP:  24; 6HR PCP: TRACE;

DTN SHREVEPORT CLOUDY   N/A N/A N/A N14       30.73F

$$

LAZ014-016-161900-
NORTHEAST LOUISIANA

CITY           SKY/WX    TMP DP  RH WIND       PRES   REMARKS
MONROE         CLOUDY    24  16  71 N14       30.69F WCI  12
6HR MIN TEMP:  23; 6HR MAX TEMP:  25; 6HR PCP:  0.01;

TALLULAH       LGT SNOW  21  17  84 N16       30.68S FOG     WCI   7
6HR MIN TEMP:  21; 6HR MAX TEMP:  28; 6HR PCP: TRACE;


$$





USA.gov is the U.S. government's official web portal to all federal, state and local government web resources and services.